2019-11-06T16:45:57Z,13.74,9,73,boot
2019-11-06T17:45:57Z,13.49,8,72,
2019-11-06T18:45:57Z,13.44,8,72,
2019-11-06T19:45:57Z,13.39,7,71,
2019-11-06T20:45:57Z,13.36,7,72,
2019-11-06T21:13:46Z,13.35,7,71,boot
2019-11-06T22:13:46Z,13.32,7,70,
2019-11-06T23:13:46Z,13.31,5,69,
2019-11-07T00:13:46Z,13.28,4,70,
2019-11-07T01:13:46Z,13.28,4,70,
2019-11-07T02:13:46Z,13.28,3,69,
2019-11-07T03:13:46Z,13.28,3,71,
2019-11-07T04:13:46Z,13.27,4,70,
2019-11-07T05:13:46Z,13.27,6,69,
2019-11-07T06:13:46Z,13.27,7,68,
2019-11-07T07:13:46Z,13.28,7,69,
2019-11-07T08:09:43Z,13.35,8,69,boot
2019-11-07T09:09:43Z,13.39,9,69,
2019-11-07T10:09:43Z,13.40,9,70,
2019-11-07T11:09:43Z,13.41,9,69,
2019-11-07T12:09:43Z,13.42,9,69,
2019-11-07T13:09:43Z,13.50,9,70,
2019-11-07T14:09:43Z,13.48,9,70,
2019-11-07T15:09:43Z,13.60,8,70,
2019-11-07T16:09:43Z,13.64,8,70,
2019-11-07T17:09:43Z,13.52,7,71,
2019-11-07T17:30:30Z,13.4,7,,act
2019-11-07T17:31:00Z,13.4,7,,act
2019-11-07T17:31:30Z,13.4,7,,act
2019-11-07T17:32:00Z,13.4,7,,act
2019-11-07T17:32:30Z,13.4,7,,act
2019-11-07T17:33:00Z,13.4,7,,act
2019-11-07T17:33:31Z,13.4,7,,act
2019-11-07T17:34:00Z,13.4,8,,act
2019-11-07T17:34:30Z,13.4,8,,act
2019-11-07T17:35:00Z,13.4,8,,act
2019-11-07T18:09:43Z,13.39,7,70,
2019-11-07T19:09:43Z,13.36,7,71,
2019-11-07T20:09:43Z,13.33,6,70,
2019-11-07T21:09:43Z,13.31,5,71,
2019-11-07T22:09:43Z,13.30,5,70,
2019-11-07T23:09:43Z,13.28,4,71,
2019-11-08T00:09:43Z,13.28,3,69,
2019-11-08T01:09:43Z,13.27,2,67,
2019-11-08T02:09:43Z,13.27,2,70,
2019-11-08T03:09:43Z,13.27,2,69,
2019-11-08T04:09:43Z,13.26,1,66,
2019-11-08T05:09:43Z,13.19,0,66,
2019-11-08T06:09:43Z,13.25,1,69,
2019-11-08T07:09:43Z,13.28,1,70,
2019-11-08T08:09:43Z,13.93,3,74,
2019-11-08T09:09:43Z,14.20,7,73,
2019-11-08T10:09:43Z,14.20,9,72,
2019-11-08T11:09:43Z,14.19,10,69,
2019-11-08T12:09:43Z,14.20,10,70,
2019-11-08T13:09:43Z,14.20,11,71,
2019-11-08T14:09:43Z,14.20,12,73,
2019-11-08T15:09:43Z,14.20,11,74,
2019-11-08T16:09:43Z,13.94,6,70,
2019-11-08T17:09:43Z,13.57,5,70,
2019-11-08T17:22:00Z,13.5,4,,act
2019-11-08T17:22:30Z,13.5,4,,act
2019-11-08T17:23:00Z,13.5,4,,act
2019-11-08T17:23:30Z,13.5,5,,act
2019-11-08T17:24:00Z,13.5,5,,act
2019-11-08T17:24:30Z,13.5,5,,act
2019-11-08T17:25:00Z,13.5,5,,act
2019-11-08T17:25:30Z,13.5,5,,act
2019-11-08T17:26:00Z,13.5,5,,act
2019-11-08T17:26:30Z,13.5,5,,act
2019-11-08T18:09:43Z,13.48,3,69,
2019-11-08T19:09:43Z,13.43,2,67,
2019-11-08T19:33:55Z,13.40,1,67,boot
2019-11-08T20:33:55Z,13.36,2,74,
2019-11-08T21:24:16Z,13.34,5,73,boot
2019-11-08T22:24:16Z,13.32,6,72,
2019-11-08T23:24:16Z,13.29,6,71,
2019-11-09T00:24:16Z,13.29,6,71,
2019-11-09T01:24:16Z,13.29,7,71,
2019-11-09T02:24:16Z,13.29,6,71,
2019-11-09T03:24:16Z,13.28,7,70,
2019-11-09T04:24:16Z,13.19,7,70,
2019-11-09T05:24:16Z,13.25,7,70,
2019-11-09T06:24:16Z,13.25,7,70,
2019-11-09T07:24:16Z,13.32,8,70,
2019-11-09T08:24:16Z,13.33,8,69,
2019-11-09T09:24:16Z,13.36,8,70,
2019-11-09T10:24:16Z,13.47,8,70,
2019-11-09T11:24:16Z,14.17,10,68,
2019-11-09T12:24:16Z,14.19,11,69,
2019-11-09T13:24:16Z,14.19,11,70,
2019-11-09T14:24:16Z,14.19,11,72,
2019-11-09T15:24:16Z,14.23,10,72,
2019-11-09T16:24:16Z,13.78,7,72,
2019-11-09T17:24:16Z,13.47,6,74,
2019-11-09T18:24:16Z,13.38,4,69,
2019-11-09T19:24:16Z,13.32,3,69,
2019-11-09T20:24:16Z,13.28,2,66,
2019-11-09T21:24:16Z,13.27,1,66,
2019-11-09T22:24:16Z,13.19,0,65,
2019-11-09T23:24:16Z,13.24,0,65,
2019-11-10T00:24:16Z,13.24,0,64,
2019-11-10T01:24:16Z,13.23,0,66,
2019-11-10T02:24:16Z,13.22,0,64,
2019-11-10T03:24:16Z,13.24,-1,64,
2019-11-10T04:24:16Z,13.21,-1,64,
2019-11-10T05:24:16Z,13.23,-1,67,
2019-11-10T05:55:00Z,13.2,-2,,act
2019-11-10T05:55:30Z,13.2,-2,,act
2019-11-10T05:56:00Z,13.2,-2,,act
2019-11-10T05:56:30Z,13.2,-1,,act
2019-11-10T05:57:00Z,13.2,-1,,act
2019-11-10T05:57:30Z,13.2,-1,,act
2019-11-10T05:58:00Z,13.2,-1,,act
2019-11-10T05:58:30Z,13.2,-1,,act
2019-11-10T05:59:00Z,13.2,-1,,act
2019-11-10T05:59:30Z,13.2,-1,,act
2019-11-10T06:24:16Z,13.23,-1,68,
2019-11-10T07:24:16Z,13.28,0,69,
2019-11-10T08:24:16Z,13.49,0,73,
2019-11-10T09:24:16Z,14.24,3,75,
2019-11-10T10:24:16Z,14.23,7,71,
2019-11-10T10:48:16Z,14.23,8,70,boot
2019-11-10T11:48:16Z,14.22,9,70,
2019-11-10T12:48:16Z,14.22,10,70,
2019-11-10T13:48:16Z,14.23,12,72,
2019-11-10T14:48:16Z,14.21,12,74,
2019-11-10T15:48:16Z,14.23,7,67,
2019-11-10T16:48:16Z,13.64,2,64,
2019-11-10T17:48:16Z,13.53,0,65,
2019-11-10T18:48:16Z,13.45,0,66,
2019-11-10T19:48:16Z,13.39,0,65,
2019-11-10T20:48:16Z,13.36,-1,64,
2019-11-10T21:48:16Z,13.27,-1,68,
2019-11-10T22:48:16Z,13.29,-1,65,
2019-11-10T23:48:16Z,13.28,-1,68,
2019-11-11T00:48:16Z,13.28,0,71,
2019-11-11T01:48:16Z,13.28,0,72,
2019-11-11T02:48:16Z,13.27,1,74,
2019-11-11T03:48:16Z,13.27,3,72,
2019-11-11T04:48:16Z,13.28,4,71,
2019-11-11T05:47:30Z,13.3,4,,act
2019-11-11T05:48:00Z,13.3,5,,act
2019-11-11T05:48:16Z,13.25,5,71,
2019-11-11T05:48:30Z,13.3,5,,act
2019-11-11T05:49:00Z,13.2,5,,act
2019-11-11T05:49:30Z,13.2,5,,act
2019-11-11T05:50:30Z,13.2,5,,act
2019-11-11T05:51:00Z,13.2,6,,act
2019-11-11T05:51:30Z,13.2,6,,act
2019-11-11T05:52:00Z,13.2,6,,act
2019-11-11T06:48:16Z,13.28,5,70,
2019-11-11T07:48:16Z,13.29,6,70,
2019-11-11T08:48:16Z,13.30,6,70,
2019-11-11T09:48:16Z,13.29,7,69,
2019-11-11T10:48:16Z,13.31,7,70,
2019-11-11T11:48:16Z,13.36,6,70,
2019-11-11T12:48:16Z,13.37,6,70,
2019-11-11T13:48:16Z,13.37,6,70,
2019-11-11T14:48:16Z,13.36,6,70,
2019-11-11T15:48:16Z,13.32,7,69,
2019-11-11T16:48:16Z,13.31,7,70,
2019-11-11T17:48:16Z,13.30,6,70,
2019-11-11T18:48:16Z,13.29,7,70,
2019-11-11T19:48:16Z,13.28,6,70,
2019-11-11T20:48:16Z,13.19,6,70,
2019-11-11T21:48:16Z,13.27,6,70,
2019-11-11T22:48:16Z,13.26,5,71,
2019-11-11T23:48:16Z,13.26,5,70,
2019-11-12T00:48:16Z,13.26,5,70,
2019-11-12T01:48:16Z,13.26,5,70,
2019-11-12T02:48:16Z,13.20,5,70,
2019-11-12T03:48:16Z,13.23,5,70,
2019-11-12T04:48:16Z,13.24,5,70,
2019-11-12T05:48:16Z,13.24,4,70,
2019-11-12T06:48:16Z,13.24,5,70,
2019-11-12T07:48:16Z,13.24,4,70,
2019-11-12T08:48:16Z,13.22,4,69,
2019-11-12T09:48:16Z,13.29,4,69,
2019-11-12T10:48:16Z,13.39,4,70,
2019-11-12T11:48:16Z,13.38,5,69,
2019-11-12T12:48:16Z,13.58,8,68,
2019-11-12T13:48:16Z,14.19,7,69,
2019-11-12T14:48:16Z,14.13,7,69,
2019-11-12T15:39:06Z,14.10,6,70,boot
2019-11-12T16:39:06Z,13.73,5,71,
2019-11-12T17:39:06Z,13.59,5,70,
2019-11-12T18:39:06Z,13.50,5,70,
2019-11-12T19:39:06Z,13.44,5,70,
2019-11-12T20:39:06Z,13.36,6,69,
2019-11-12T21:39:06Z,13.34,5,70,
2019-11-12T22:39:06Z,13.32,5,70,
2019-11-12T23:39:06Z,13.31,6,70,
2019-11-13T00:39:06Z,13.30,6,69,
2019-11-13T01:39:06Z,13.30,6,69,
2019-11-13T02:39:06Z,13.29,6,69,
2019-11-13T03:39:06Z,13.29,6,70,
2019-11-13T04:39:06Z,13.29,6,70,
2019-11-13T05:39:06Z,13.29,7,69,
2019-11-13T06:39:06Z,13.29,6,70,
2019-11-13T07:39:06Z,13.30,6,69,
2019-11-13T08:39:06Z,13.30,7,69,
2019-11-13T09:39:06Z,13.37,8,69,
2019-11-13T10:39:06Z,13.38,8,69,
2019-11-13T11:39:06Z,14.19,10,68,
2019-11-13T12:39:06Z,14.20,11,69,
2019-11-13T13:39:06Z,14.20,9,71,
2019-11-13T14:39:06Z,13.87,7,71,
2019-11-13T15:39:06Z,13.77,6,72,
2019-11-13T16:39:06Z,13.61,6,72,
2019-11-13T17:30:00Z,13.5,5,,act
2019-11-13T17:30:30Z,13.5,5,,act
2019-11-13T17:31:00Z,13.5,5,,act
2019-11-13T17:31:30Z,13.5,5,,act
2019-11-13T17:32:00Z,13.5,6,,act
2019-11-13T17:32:30Z,13.5,6,,act
2019-11-13T17:33:00Z,13.5,6,,act
2019-11-13T17:33:31Z,13.5,6,,act
2019-11-13T17:34:00Z,13.5,6,,act
2019-11-13T17:34:30Z,13.5,6,,act
2019-11-13T17:39:06Z,13.50,5,71,
2019-11-13T18:39:06Z,13.43,4,68,
2019-11-13T19:39:06Z,13.39,2,68,
2019-11-13T20:39:06Z,13.33,3,71,
2019-11-13T21:39:06Z,13.32,3,71,
2019-11-13T22:39:06Z,13.31,4,70,
2019-11-13T23:39:06Z,13.30,3,70,
2019-11-14T00:39:06Z,13.29,3,70,
2019-11-14T01:39:06Z,13.25,3,70,
2019-11-14T02:39:06Z,13.28,3,70,
2019-11-14T03:39:06Z,13.27,2,70,
2019-11-14T04:39:06Z,13.28,3,70,
2019-11-14T05:39:06Z,13.28,3,70,
2019-11-14T06:39:06Z,13.28,4,69,
2019-11-14T07:39:06Z,13.31,4,68,
2019-11-14T08:39:06Z,13.36,5,69,
2019-11-14T09:39:06Z,13.41,6,69,
2019-11-14T10:39:06Z,13.41,6,69,
2019-11-14T11:39:06Z,13.41,6,69,
2019-11-14T12:39:06Z,13.42,6,69,
2019-11-14T13:39:06Z,14.19,7,69,
2019-11-14T14:39:06Z,14.20,8,71,
2019-11-14T15:39:06Z,13.97,6,72,
2019-11-14T16:39:06Z,13.70,4,71,
2019-11-14T17:22:30Z,13.6,4,,act
2019-11-14T17:23:01Z,13.6,5,,act
2019-11-14T17:23:30Z,13.6,5,,act
2019-11-14T17:24:01Z,13.6,5,,act
2019-11-14T17:24:30Z,13.6,5,,act
2019-11-14T17:25:00Z,13.6,5,,act
2019-11-14T17:25:30Z,13.5,5,,act
2019-11-14T17:26:00Z,13.5,5,,act
2019-11-14T17:26:30Z,13.5,6,,act
2019-11-14T17:27:00Z,13.5,6,,act
2019-11-14T17:39:06Z,13.56,5,71,
2019-11-14T18:39:06Z,13.48,5,70,
2019-11-14T19:39:06Z,13.38,5,70,
2019-11-14T20:39:06Z,13.35,5,70,
2019-11-14T21:39:06Z,13.33,5,69,
2019-11-14T22:39:06Z,13.31,5,70,
2019-11-14T23:39:06Z,13.30,4,69,
2019-11-15T00:39:06Z,13.25,3,70,
2019-11-15T01:39:06Z,13.27,3,70,
2019-11-15T02:39:06Z,13.28,2,70,
2019-11-15T03:39:06Z,13.27,2,69,
2019-11-15T04:39:06Z,13.27,2,69,
2019-11-15T05:39:06Z,13.28,2,70,
2019-11-15T06:39:06Z,13.26,3,68,
2019-11-15T07:39:06Z,13.27,3,69,
2019-11-15T08:39:06Z,13.29,4,69,
2019-11-15T09:39:06Z,13.31,4,69,
2019-11-15T10:39:06Z,13.39,5,69,
2019-11-15T11:39:06Z,13.43,6,69,
2019-11-15T12:39:06Z,13.39,6,69,
2019-11-15T13:39:06Z,13.39,6,70,
2019-11-15T14:39:06Z,13.39,6,70,
2019-11-15T15:39:06Z,13.37,5,70,
2019-11-15T16:39:06Z,13.34,5,70,
2019-11-15T17:39:06Z,13.32,5,70,
2019-11-15T18:39:06Z,13.30,5,69,
2019-11-15T19:39:06Z,13.28,5,69,
2019-11-15T20:39:06Z,13.29,5,69,
2019-11-15T21:39:06Z,13.28,5,69,
2019-11-15T22:39:06Z,13.28,5,69,
2019-11-15T23:39:06Z,13.22,3,70,
2019-11-16T00:39:06Z,13.27,2,69,
2019-11-16T01:39:06Z,13.27,2,70,
2019-11-16T02:39:06Z,13.27,1,69,
2019-11-16T03:39:06Z,13.26,1,69,
2019-11-16T04:39:06Z,13.26,1,69,
2019-11-16T05:39:06Z,13.23,1,67,
2019-11-16T05:56:00Z,13.2,0,,act
2019-11-16T05:56:30Z,13.2,0,,act
2019-11-16T05:57:00Z,13.2,1,,act
2019-11-16T05:57:30Z,13.2,1,,act
2019-11-16T05:58:00Z,13.2,1,,act
2019-11-16T05:58:30Z,13.2,1,,act
2019-11-16T05:59:00Z,13.2,1,,act
2019-11-16T05:59:30Z,13.2,1,,act
2019-11-16T06:00:00Z,13.2,1,,act
2019-11-16T06:00:30Z,13.2,1,,act
2019-11-16T06:39:06Z,13.24,0,69,
2019-11-16T07:39:06Z,13.28,0,68,
2019-11-16T08:39:06Z,13.76,3,72,
2019-11-16T09:39:06Z,14.20,7,69,
2019-11-16T10:39:06Z,14.20,8,69,
2019-11-16T11:39:06Z,14.20,8,68,
2019-11-16T12:39:06Z,14.20,8,69,
2019-11-16T13:39:06Z,14.20,8,70,
2019-11-16T14:39:06Z,14.20,7,70,
2019-11-16T15:39:06Z,14.05,5,71,
2019-11-16T16:39:06Z,13.72,4,71,
2019-11-16T17:39:06Z,13.51,4,70,
2019-11-16T18:39:06Z,13.45,4,70,
2019-11-16T19:39:06Z,13.40,5,69,
2019-11-16T20:39:06Z,13.37,6,69,
2019-11-16T21:39:06Z,13.34,6,69,
2019-11-16T22:39:06Z,13.25,6,69,
2019-11-16T23:39:06Z,13.30,5,69,
2019-11-17T00:39:06Z,13.29,4,70,
2019-11-17T01:39:06Z,13.29,3,69,
2019-11-17T02:39:06Z,13.28,2,69,
2019-11-17T03:39:06Z,13.28,1,68,
2019-11-17T04:39:06Z,13.24,0,68,
2019-11-17T05:39:06Z,13.27,0,67,
2019-11-17T05:47:00Z,13.2,-1,,act
2019-11-17T05:47:30Z,13.2,-1,,act
2019-11-17T05:48:00Z,13.2,-1,,act
2019-11-17T05:48:30Z,13.2,-1,,act
2019-11-17T05:49:00Z,13.2,-1,,act
2019-11-17T05:49:30Z,13.2,0,,act
2019-11-17T05:50:00Z,13.2,0,,act
2019-11-17T05:50:30Z,13.2,0,,act
2019-11-17T05:51:00Z,13.2,0,,act
2019-11-17T05:51:30Z,13.2,0,,act
2019-11-17T06:39:06Z,13.26,-1,66,
2019-11-17T07:39:06Z,13.33,-1,68,
2019-11-17T08:39:06Z,14.17,1,75,
2019-11-17T09:39:06Z,14.19,5,72,
2019-11-17T10:39:06Z,14.20,8,69,
2019-11-17T11:39:06Z,14.20,8,70,
2019-11-17T12:39:06Z,14.20,9,70,
2019-11-17T13:39:06Z,14.20,10,71,
2019-11-17T14:39:06Z,14.20,9,73,
2019-11-17T15:39:06Z,14.09,5,68,
2019-11-17T16:39:06Z,13.61,3,68,
2019-11-17T17:39:06Z,13.51,1,70,
2019-11-17T18:39:06Z,13.45,2,73,
2019-11-17T19:39:06Z,13.40,2,72,
2019-11-17T20:39:06Z,13.36,3,71,
2019-11-17T21:39:06Z,13.34,3,70,
2019-11-17T22:39:06Z,13.31,3,70,
2019-11-17T23:39:06Z,13.30,4,70,
2019-11-18T00:39:06Z,13.29,3,70,
2019-11-18T01:39:06Z,13.29,4,70,
2019-11-18T02:39:06Z,13.28,4,70,
2019-11-18T03:39:06Z,13.25,4,69,
2019-11-18T04:39:06Z,13.28,4,69,
2019-11-18T05:39:06Z,13.28,4,69,
2019-11-18T06:39:06Z,13.28,4,69,
2019-11-18T07:39:06Z,13.28,5,69,
2019-11-18T08:39:06Z,13.30,5,69,
2019-11-18T09:39:06Z,13.29,7,68,
2019-11-18T10:39:06Z,13.34,7,69,
2019-11-18T11:39:06Z,13.48,8,69,
2019-11-18T12:39:06Z,13.43,8,69,
2019-11-18T13:39:06Z,13.38,8,70,
2019-11-18T14:39:06Z,13.39,8,69,
2019-11-18T15:39:06Z,13.34,9,69,
2019-11-18T16:39:06Z,13.31,8,70,
2019-11-18T17:39:06Z,13.31,8,70,
2019-11-18T18:39:06Z,13.30,7,71,
2019-11-18T19:39:06Z,13.30,7,71,
2019-11-18T20:39:06Z,13.29,6,71,
2019-11-18T21:39:06Z,13.28,6,70,
2019-11-18T22:39:06Z,13.28,5,72,
2019-11-18T23:39:06Z,13.28,5,71,
2019-11-19T00:39:06Z,13.28,5,71,
2019-11-19T01:39:06Z,13.28,5,70,
2019-11-19T02:39:06Z,13.27,6,70,
2019-11-19T03:39:06Z,13.26,6,70,
2019-11-19T04:39:06Z,13.27,5,70,
2019-11-19T05:39:06Z,13.26,5,70,
2019-11-19T06:39:06Z,13.26,3,70,
2019-11-19T07:39:06Z,13.32,3,72,
2019-11-19T08:39:06Z,13.51,5,73,
2019-11-19T09:39:06Z,13.53,7,70,
2019-11-19T10:39:06Z,14.19,8,70,
2019-11-19T11:39:06Z,14.20,8,71,
2019-11-19T12:39:06Z,14.20,9,71,
2019-11-19T13:39:06Z,14.21,8,71,
2019-11-19T14:39:06Z,14.21,8,71,
2019-11-19T15:39:06Z,13.80,7,71,
2019-11-19T16:39:06Z,13.64,6,72,
2019-11-19T17:30:30Z,13.5,5,,act
2019-11-19T17:31:00Z,13.5,5,,act
2019-11-19T17:31:31Z,13.5,6,,act
2019-11-19T17:32:00Z,13.5,6,,act
2019-11-19T17:32:30Z,13.5,6,,act
2019-11-19T17:33:00Z,13.5,6,,act
2019-11-19T17:33:30Z,13.5,6,,act
2019-11-19T17:34:00Z,13.5,6,,act
2019-11-19T17:34:30Z,13.5,6,,act
2019-11-19T17:35:00Z,13.5,6,,act
2019-11-19T17:39:06Z,13.52,5,71,
2019-11-19T18:39:06Z,13.45,3,70,
2019-11-19T19:39:06Z,13.40,1,68,
2019-11-19T20:39:06Z,13.29,0,65,
2019-11-19T21:39:06Z,13.31,0,65,
2019-11-19T22:39:06Z,13.30,0,65,
2019-11-19T23:39:06Z,13.28,-1,64,
2019-11-20T00:39:06Z,13.28,-1,64,
2019-11-20T01:39:06Z,13.28,-2,63,
2019-11-20T02:39:06Z,13.26,-2,62,
2019-11-20T03:39:06Z,13.27,-2,62,
2019-11-20T04:39:06Z,13.26,-2,62,
2019-11-20T05:39:06Z,13.26,-2,61,
2019-11-20T06:39:06Z,13.26,-3,60,
2019-11-20T07:39:06Z,13.35,-3,61,
2019-11-20T08:39:06Z,14.19,0,79,
2019-11-20T09:39:06Z,14.20,4,78,
2019-11-20T10:39:06Z,14.20,5,75,
2019-11-20T11:39:06Z,14.20,5,73,
2019-11-20T12:39:06Z,14.20,6,73,
2019-11-20T13:39:06Z,14.20,8,74,
2019-11-20T14:39:06Z,14.20,7,75,
2019-11-20T15:39:06Z,14.11,4,70,
2019-11-20T16:39:06Z,13.73,1,68,
2019-11-20T17:22:00Z,13.6,1,,act
2019-11-20T17:22:30Z,13.6,1,,act
2019-11-20T17:23:01Z,13.6,1,,act
2019-11-20T17:23:30Z,13.6,2,,act
2019-11-20T17:24:01Z,13.6,2,,act
2019-11-20T17:24:30Z,13.6,2,,act
2019-11-20T17:25:00Z,13.6,2,,act
2019-11-20T17:25:30Z,13.6,2,,act
2019-11-20T17:26:00Z,13.6,2,,act
2019-11-20T17:26:30Z,13.5,2,,act
2019-11-20T17:39:06Z,13.57,1,72,
2019-11-20T18:39:06Z,13.49,2,75,
2019-11-20T19:39:06Z,13.39,2,72,
2019-11-20T20:39:06Z,13.36,3,72,
2019-11-20T21:39:06Z,13.33,3,72,
2019-11-20T22:39:06Z,13.32,3,71,
2019-11-20T23:39:06Z,13.30,3,71,
2019-11-21T00:39:06Z,13.28,2,70,
2019-11-21T01:39:06Z,13.28,2,71,
2019-11-21T02:39:06Z,13.28,2,71,
2019-11-21T03:39:06Z,13.28,2,71,
2019-11-21T04:39:06Z,13.28,2,70,
2019-11-21T05:39:06Z,13.20,2,70,
2019-11-21T06:39:06Z,13.27,2,70,
2019-11-21T07:39:06Z,13.27,2,70,
2019-11-21T08:39:06Z,13.32,3,70,
2019-11-21T09:39:06Z,13.39,4,70,
2019-11-21T10:39:06Z,13.44,4,69,
2019-11-21T11:39:06Z,13.48,5,69,
2019-11-21T12:39:06Z,14.22,6,69,
2019-11-21T13:39:06Z,14.21,6,70,
2019-11-21T14:39:06Z,14.22,4,70,
2019-11-21T15:39:06Z,14.01,3,71,
2019-11-21T16:39:06Z,13.70,1,71,
2019-11-21T17:39:06Z,13.49,1,70,
2019-11-21T18:39:06Z,13.43,1,70,
2019-11-21T19:39:06Z,13.39,1,69,
2019-11-21T20:39:06Z,13.35,0,71,
2019-11-21T21:39:06Z,13.32,0,69,
2019-11-21T22:39:06Z,13.24,0,69,
2019-11-21T23:39:06Z,13.28,0,68,
2019-11-22T00:39:06Z,13.28,0,69,
2019-11-22T01:39:06Z,13.28,1,69,
2019-11-22T02:39:06Z,13.28,2,68,
2019-11-22T03:39:06Z,13.28,3,68,
2019-11-22T04:39:06Z,13.27,4,68,
2019-11-22T05:39:06Z,13.27,4,69,
2019-11-22T05:55:00Z,13.2,4,,act
2019-11-22T05:55:30Z,13.3,4,,act
2019-11-22T05:56:01Z,13.2,4,,act
2019-11-22T05:56:30Z,13.2,4,,act
2019-11-22T05:57:00Z,13.2,5,,act
2019-11-22T05:57:30Z,13.2,5,,act
2019-11-22T05:58:00Z,13.2,5,,act
2019-11-22T05:58:30Z,13.2,5,,act
2019-11-22T05:59:00Z,13.2,5,,act
2019-11-22T05:59:31Z,13.2,5,,act
2019-11-22T06:39:06Z,13.28,5,69,
2019-11-22T07:39:06Z,13.28,5,69,
2019-11-22T08:39:06Z,13.32,6,69,
2019-11-22T09:39:06Z,13.40,7,69,
2019-11-22T10:39:06Z,14.19,9,68,
2019-11-22T11:39:06Z,14.20,10,68,
2019-11-22T12:39:06Z,14.20,11,68,
2019-11-22T13:39:06Z,14.20,10,70,
2019-11-22T14:39:06Z,14.19,10,71,
2019-11-22T15:39:06Z,14.08,7,73,
2019-11-22T16:39:06Z,13.62,6,73,
2019-11-22T17:39:06Z,13.52,6,72,
2019-11-22T18:39:06Z,13.46,5,72,
2019-11-22T19:39:06Z,13.40,4,72,
2019-11-22T20:39:06Z,13.37,4,72,
2019-11-22T21:39:06Z,13.28,4,71,
2019-11-22T22:39:06Z,13.31,4,71,
2019-11-22T23:39:06Z,13.30,5,71,
2019-11-23T00:39:06Z,13.29,4,71,
2019-11-23T01:39:06Z,13.29,5,71,
2019-11-23T02:39:06Z,13.29,5,70,
2019-11-23T03:39:06Z,13.27,5,69,
2019-11-23T04:39:06Z,13.28,5,70,
2019-11-23T05:39:06Z,13.28,5,71,
2019-11-23T05:47:30Z,13.3,4,,act
2019-11-23T05:48:01Z,13.3,4,,act
2019-11-23T05:48:30Z,13.2,5,,act
2019-11-23T05:49:00Z,13.3,5,,act
2019-11-23T05:49:30Z,13.2,5,,act
2019-11-23T05:50:01Z,13.2,5,,act
2019-11-23T05:50:30Z,13.2,5,,act
2019-11-23T05:51:00Z,13.2,5,,act
2019-11-23T05:51:30Z,13.2,5,,act
2019-11-23T05:52:01Z,13.2,5,,act
2019-11-23T06:39:06Z,13.28,4,71,
2019-11-23T07:39:06Z,13.27,4,70,
2019-11-23T08:39:06Z,13.35,5,70,
2019-11-23T09:39:06Z,13.55,6,69,
2019-11-23T10:39:06Z,13.58,7,70,
2019-11-23T11:39:06Z,14.20,8,70,
2019-11-23T12:39:06Z,14.20,9,70,
2019-11-23T13:39:06Z,14.21,8,70,
2019-11-23T14:39:06Z,14.21,8,71,
2019-11-23T15:39:06Z,13.76,7,71,
2019-11-23T16:39:06Z,13.61,6,71,
2019-11-23T17:39:06Z,13.51,6,71,
2019-11-23T18:39:06Z,13.45,6,70,
2019-11-23T19:39:06Z,13.40,5,71,
2019-11-23T20:39:06Z,13.28,5,71,
2019-11-23T21:39:06Z,13.32,4,70,
2019-11-23T22:39:06Z,13.31,3,71,
2019-11-23T23:39:06Z,13.30,3,71,
2019-11-24T00:39:06Z,13.29,3,71,
2019-11-24T01:39:06Z,13.28,1,69,
2019-11-24T02:39:06Z,13.25,1,69,
2019-11-24T03:39:06Z,13.27,0,70,
2019-11-24T04:39:06Z,13.27,0,70,
2019-11-24T05:39:06Z,13.27,1,70,
2019-11-24T06:39:06Z,13.27,0,69,
2019-11-24T07:39:06Z,13.28,1,70,
2019-11-24T08:39:06Z,13.39,3,68,
2019-11-24T09:39:06Z,14.19,7,71,
2019-11-24T10:39:06Z,14.20,9,70,
2019-11-24T11:39:06Z,14.20,10,68,
2019-11-24T12:39:06Z,14.19,11,69,
2019-11-24T13:39:06Z,14.20,12,69,
2019-11-24T14:39:06Z,14.20,11,70,
2019-11-24T15:39:06Z,13.98,10,71,
2019-11-24T16:39:06Z,13.73,8,72,
2019-11-24T17:39:06Z,13.60,8,72,
2019-11-24T18:39:06Z,13.51,7,72,
2019-11-24T19:39:06Z,13.45,7,72,
2019-11-24T20:39:06Z,13.36,7,71,
2019-11-24T21:39:06Z,13.34,7,72,
2019-11-24T22:39:06Z,13.32,7,71,
2019-11-24T23:39:06Z,13.31,7,71,
2019-11-25T00:39:06Z,13.29,7,71,
2019-11-25T01:39:06Z,13.29,7,71,
2019-11-25T02:39:06Z,13.28,4,69,
2019-11-25T03:39:06Z,13.28,3,73,
2019-11-25T04:39:06Z,13.28,5,71,
2019-11-25T05:39:06Z,13.28,5,71,
2019-11-25T06:39:06Z,13.28,5,71,
2019-11-25T07:39:06Z,13.20,5,71,
2019-11-25T08:39:06Z,13.31,6,71,
2019-11-25T09:39:06Z,13.45,7,70,
2019-11-25T10:39:06Z,14.23,8,70,
2019-11-25T11:39:06Z,14.20,10,69,
2019-11-25T12:39:06Z,14.20,11,69,
2019-11-25T13:39:06Z,14.18,11,70,
2019-11-25T14:39:06Z,14.20,11,71,
2019-11-25T15:39:06Z,13.96,8,74,
2019-11-25T16:39:06Z,13.72,8,73,
2019-11-25T17:30:01Z,13.6,7,,act
2019-11-25T17:30:30Z,13.6,7,,act
2019-11-25T17:31:00Z,13.6,7,,act
2019-11-25T17:31:30Z,13.6,7,,act
2019-11-25T17:32:01Z,13.6,7,,act
2019-11-25T17:32:30Z,13.6,8,,act
2019-11-25T17:33:00Z,13.5,8,,act
2019-11-25T17:33:30Z,13.6,8,,act
2019-11-25T17:34:01Z,13.5,8,,act
2019-11-25T17:34:30Z,13.5,8,,act
2019-11-25T17:39:06Z,13.57,7,73,
2019-11-25T18:39:06Z,13.49,6,73,
2019-11-25T19:39:06Z,13.36,7,72,
2019-11-25T20:39:06Z,13.36,6,73,
2019-11-25T21:39:06Z,13.33,7,72,
2019-11-25T22:39:06Z,13.32,7,71,
2019-11-25T23:39:06Z,13.31,8,71,
2019-11-26T00:39:06Z,13.30,8,71,
2019-11-26T01:39:06Z,13.27,8,70,
2019-11-26T02:39:06Z,13.29,8,71,
2019-11-26T03:39:06Z,13.29,8,71,
2019-11-26T04:39:06Z,13.29,8,71,
2019-11-26T05:39:06Z,13.29,9,71,
2019-11-26T06:39:06Z,13.28,9,71,
2019-11-26T07:39:06Z,13.25,9,70,
2019-11-26T08:39:06Z,13.29,10,69,
2019-11-26T09:39:06Z,13.34,10,69,
2019-11-26T10:39:06Z,13.37,11,69,
2019-11-26T11:39:06Z,13.46,11,70,
2019-11-26T12:39:06Z,13.54,12,69,
2019-11-26T13:39:06Z,13.46,12,69,
2019-11-26T14:39:06Z,13.46,11,71,
2019-11-26T15:39:06Z,13.41,10,71,
2019-11-26T16:39:06Z,13.37,10,71,
2019-11-26T17:22:30Z,13.3,10,,act
2019-11-26T17:23:00Z,13.3,11,,act
2019-11-26T17:23:30Z,13.3,11,,act
2019-11-26T17:24:01Z,13.3,11,,act
2019-11-26T17:24:30Z,13.3,11,,act
2019-11-26T17:25:00Z,13.3,11,,act
2019-11-26T17:25:30Z,13.3,11,,act
2019-11-26T17:26:01Z,13.3,11,,act
2019-11-26T17:26:30Z,13.3,11,,act
2019-11-26T17:27:00Z,13.3,11,,act
2019-11-26T17:39:06Z,13.34,10,71,
2019-11-26T18:39:06Z,13.32,11,70,
2019-11-26T19:39:06Z,13.30,11,70,
2019-11-26T20:39:06Z,13.30,11,70,
2019-11-26T21:39:06Z,13.30,11,70,
2019-11-26T22:39:06Z,13.30,10,71,
2019-11-26T23:39:06Z,13.29,10,71,
2019-11-27T00:39:06Z,13.29,10,71,
2019-11-27T01:39:06Z,13.27,10,70,
2019-11-27T02:39:06Z,13.28,10,71,
2019-11-27T03:39:06Z,13.28,10,71,
2019-11-27T04:39:06Z,13.27,10,71,
2019-11-27T05:39:06Z,13.28,10,71,
2019-11-27T06:39:06Z,13.27,10,71,
2019-11-27T07:39:06Z,13.25,10,70,
2019-11-27T08:39:06Z,13.29,10,71,
2019-11-27T09:39:06Z,13.48,10,71,
2019-11-27T10:39:06Z,13.43,11,71,
2019-11-27T11:39:06Z,13.43,11,71,
2019-11-27T12:39:06Z,13.41,11,71,
2019-11-27T13:39:06Z,13.39,10,70,
2019-11-27T14:39:06Z,13.45,10,71,
2019-11-27T15:39:06Z,13.43,10,72,
2019-11-27T16:39:06Z,13.38,10,72,
2019-11-27T17:39:06Z,13.35,10,71,
2019-11-27T18:39:06Z,13.33,10,71,
2019-11-27T19:39:06Z,13.30,10,70,
2019-11-27T20:39:06Z,13.30,10,71,
2019-11-27T21:39:06Z,13.30,10,71,
2019-11-27T22:39:06Z,13.30,10,71,
2019-11-27T23:39:06Z,13.29,10,71,
2019-11-28T00:39:06Z,13.29,10,71,
2019-11-28T01:39:06Z,13.28,10,70,
2019-11-28T02:39:06Z,13.29,10,71,
2019-11-28T03:39:06Z,13.28,9,72,
2019-11-28T04:39:06Z,13.28,9,73,
2019-11-28T05:39:06Z,13.28,9,73,
2019-11-28T05:56:00Z,13.3,9,,act
2019-11-28T05:56:30Z,13.3,9,,act
2019-11-28T05:57:00Z,13.3,9,,act
2019-11-28T05:57:30Z,13.3,10,,act
2019-11-28T05:58:00Z,13.2,10,,act
2019-11-28T05:58:30Z,13.2,10,,act
2019-11-28T05:59:00Z,13.2,10,,act
2019-11-28T05:59:30Z,13.2,10,,act
2019-11-28T06:00:00Z,13.2,10,,act
2019-11-28T06:00:30Z,13.2,10,,act
2019-11-28T06:39:06Z,13.27,9,73,
2019-11-28T07:39:06Z,13.24,9,72,
2019-11-28T08:39:06Z,13.26,9,72,
2019-11-28T09:39:06Z,13.32,10,71,
2019-11-28T10:39:06Z,13.38,11,71,
2019-11-28T11:39:06Z,13.41,11,71,
2019-11-28T12:39:06Z,13.49,12,71,
2019-11-28T13:39:06Z,13.57,11,71,
2019-11-28T14:39:06Z,13.53,10,72,
2019-11-28T15:39:06Z,13.46,10,72,
2019-11-28T16:39:06Z,13.41,9,74,
2019-11-28T17:39:06Z,13.37,9,74,
2019-11-28T18:39:06Z,13.35,9,74,
2019-11-28T19:39:06Z,13.31,9,73,
2019-11-28T20:39:06Z,13.30,8,73,
2019-11-28T21:39:06Z,13.30,8,73,
2019-11-28T22:39:06Z,13.30,8,74,
2019-11-28T23:39:06Z,13.29,7,74,
2019-11-29T00:39:06Z,13.29,7,74,
2019-11-29T01:39:06Z,13.28,6,73,
2019-11-29T02:39:06Z,13.28,6,73,
2019-11-29T03:39:06Z,13.28,5,74,
2019-11-29T04:39:06Z,13.28,5,74,
2019-11-29T05:39:06Z,13.28,5,73,
2019-11-29T05:47:00Z,13.3,5,,act
2019-11-29T05:47:30Z,13.3,5,,act
2019-11-29T05:48:00Z,13.2,6,,act
2019-11-29T05:48:30Z,13.2,6,,act
2019-11-29T05:49:00Z,13.2,6,,act
2019-11-29T05:49:30Z,13.2,6,,act
2019-11-29T05:50:00Z,13.2,6,,act
2019-11-29T05:50:30Z,13.2,6,,act